Regional Weather Roundup
Issued by NWS

Home | Current Version | Previous Version | Text Only | Print | Product List | Glossary On
Versions: 1 2 3 4 5 6 7 8 9 10 11 12 13 14 15 16 17 18 19 20 21 22 23 24 25 26 27 28 29 30 31 32 33 34 35 36 37 38 39 40 41 42 43 44 45 46 47 48 49 50
000
ASUS43 KLOT 220803
RWRIL

ILLINOIS REGIONAL WEATHER ROUNDUP
NATIONAL WEATHER SERVICE CHICAGO/ROMEOVILLE IL
200 AM CST WED FEB 22 2017

NOTE: "FAIR" INDICATES FEW OR NO CLOUDS BELOW 12,000 FEET WITH NO
SIGNIFICANT WEATHER AND/OR OBSTRUCTIONS TO VISIBILITY.

* THESE STATIONS ARE NOT UNDER NWS QUALITY CONTROL. THEY ALSO MAY NOT
  REPORT WEATHER SUCH AS PRECIPITATION OR FOG.

ILZ001-002-007-009-015-016-024-220900-
NORTHWEST ILLINOIS

CITY           SKY/WX    TMP DP  RH WIND       PRES   REMARKS
MOLINE         CLEAR     54  51  90 SW8       29.81F
STERLING*      FOG       46  46 100 CALM      29.83F VSB 1/4
SAVANNA*       FOG       44  44  99 S7        29.82S VSB 1/2
$$

ILZ003-004-008-010-011-017-018-220900-
NORTH CENTRAL ILLINOIS

CITY           SKY/WX    TMP DP  RH WIND       PRES   REMARKS
ROCKFORD       FOG       45  43  93 S5        29.84F VSB 1/8
FREEPORT*      FOG       46  46  99 S8        29.83S VSB 1/4
ROCHELLE*      FOG       42  42 100 S7        29.84S VSB 1/4
DE KALB*       FOG       46  46  99 SW5       29.84S VSB 1/4
PERU*          FOG       50  49  97 SW7       29.85S VSB 1/2
$$

ILZ005-006-012>014-019>023-220900-
NORTHEAST ILLINOIS

CITY           SKY/WX    TMP DP  RH WIND       PRES   REMARKS
CHICAGO-OHARE  PTCLDY    54  51  90 S6        29.83F FOG
CHICAGO-MIDWAY PTCLDY    53  50  89 S6        29.84F FOG
AURORA         FOG       44  43  96 CALM      29.84S VSB 1/4
LANSING*       CLOUDY    49  49 100 CALM      29.86S FOG
JOLIET*        CLOUDY    49  49 100 CALM      29.86S FOG
WAUKEGAN       FOG       49  49 100 SW6       29.81F VSB 1/4
DUPAGE AIRPORT FOG       48  47  96 S5        29.83S VSB 1/2
KANKAKEE*      CLOUDY    49  48  98 CALM      29.87S FOG
WHEELING       CLEAR     48  47  96 CALM      29.83F FOG
MORRIS*        FOG       48  47  97 CALM      29.84F VSB 3/4
ROMEOVILLE*    CLOUDY    50  50 100 S5        29.85F FOG
NORTHERLY ISL    N/A     54  51  90 S9          N/A
$$

LMZ740>746-220900-
SOUTHERN LAKE MICHIGAN

STATION/POSITION SKY/WX   TEMP    WIND        PRES    VSBY  WAVE
                          AIR SEA DIR/SP/G                  HT/PER
                          (F)     (DEG/KT/KT) (MB)    (MI)  (FT/S)
HARRISON CRIB              57     190/ 12/ 13   N/A
BURNHAM HARBOR             54     170/  7/  8   N/A
CALUMET HARBOR             52     190/  4/  5 1010.5R
BURNS HARBOR               50     200/  6/  7 1011.9S
MICHIGAN CITY              53     170/  8/  9   N/A
$$

ILZ025>027-034>036-040-047-049-050-058-095>099-220900-
WEST-CENTRAL ILLINOIS

CITY           SKY/WX    TMP DP  RH WIND       PRES   REMARKS
QUINCY         FOG       52  52 100 S8        29.86S VSB 1/4
GALESBURG*     FOG       45  45 100 CALM      29.84F VSB<1/4
MACOMB*        FOG       47  47 100 SE5       29.87S VSB 1/4
JACKSONVILLE*  FOG       51  51 100 S6        29.87S VSB<1/4
PITTSFIELD*    FOG       54  54 100 S6        29.88F VSB<1/4
$$

ILZ028>032-037-038-041>044-048-051>054-059>061-220900-
CENTRAL ILLINOIS

CITY           SKY/WX    TMP DP  RH WIND       PRES   REMARKS
PONTIAC        FOG       47  46  98 CALM      29.87S VSB 1/4
BLOOMINGTON    CLEAR     49  48  97 SW8       29.88R FOG
DECATUR        CLOUDY    52  50  93 S7        29.87R FOG
PEORIA         FOG       55  55 100 SW7       29.86S VSB 1/4
LINCOLN*       FOG       49  49 100 CALM      29.88R VSB<1/4
SPRINGFIELD    CLEAR     51  50  96 SW5       29.88R FOG
TAYLORVILLE    CLOUDY    49  49  99 S6        29.88S FOG
$$

ILZ033-039-045-046-055>057-062-063-220900-
EAST-CENTRAL ILLINOIS

CITY           SKY/WX    TMP DP  RH WIND       PRES   REMARKS
CHAMPAIGN      PTCLDY    50  48  93 S6        29.88R FOG
RANTOUL*       CLOUDY    50  50  98 S3        29.87S FOG
MATTOON        MOCLDY    53  53 100 S5        29.86F FOG
$$

ILZ079-100>102-220900-
SOUTHWEST ILLINOIS

CITY           SKY/WX    TMP DP  RH WIND       PRES   REMARKS
ALTON          FOG       47  47 100 CALM      29.89R VSB 3/4
BELLEVILLE     FOG       49  49 100 CALM      29.87S VSB 1
CAHOKIA*       PTCLDY    50  48  93 S3        29.88S FOG
SPARTA*        CLOUDY    55  53  94 CALM      29.90S
$$

ILZ064>066-069>071-074>076-080>082-084>086-088>090-092>094-220900-
SOUTH-CENTRAL ILLINOIS

CITY           SKY/WX    TMP DP  RH WIND       PRES   REMARKS
CARBONDALE     MOCLDY    51  51 100 CALM      29.88F FOG
CAIRO*         CLOUDY    57  57  99 SE8       29.87F
EFFINGHAM*     FOG       48  48 100 SE3       29.90S VSB 1/4
MARION         FOG       52  50  93 CALM      29.90S VSB 3/4
MT. VERNON     CLOUDY    48  48 100 CALM      29.89S FOG
CENTRALIA*     MOCLDY    51  51 100 S3        29.89R FOG
SALEM*         MOCLDY    52  50  94 CALM      29.89R FOG
METROPOLIS*    CLOUDY    56  56  99 CALM      29.89F FOG
$$

ILZ067-068-072-073-078-083-087-091-220900-
SOUTHEAST ILLINOIS

CITY           SKY/WX    TMP DP  RH WIND       PRES   REMARKS
LAWRENCEVILLE  FOG       51  51 100 SE3       29.90R VSB 1/4
FLORA*         FOG       50  50  99 CALM      29.90R VSB 1/4
FAIRFIELD*     CLOUDY    53  53 100 CALM      29.88S FOG
HARRISBURG*    FOG       51  51 100 CALM      29.89F VSB 3/4
ROBINSON*      FOG       47  47 100 CALM      29.89F VSB 1/4
CARMI*         CLOUDY    51  51  99 CALM      29.89S FOG
$$

ABBREVIATIONS USED IN REMARKS
   TC - TEMPERATURE IN CELSIUS
  WCI - WIND CHILL INDEX
   HX - HEAT INDEX
  VSB - VISIBILITY
$$





USA.gov is the U.S. government's official web portal to all federal, state and local government web resources and services.